Read MPEC 2008-T71
Read MPEC 2008-T73
M.P.E.C. 2008-T72 Issued 2008 Oct. 7, 01:23 UT
The Minor Planet Electronic Circulars contain information on unusual
minor planets and routine data on comets. They are published
on behalf of Commission 20 of the International Astronomical Union by the
Minor Planet Center, Smithsonian Astrophysical Observatory,
Cambridge, MA 02138, U.S.A.
Prepared using the Tamkin Foundation Computer Network
MPC@CFA.HARVARD.EDU
URL http://www.cfa.harvard.edu/iau/mpc.html ISSN 1523-6714
2008 TC3
Revision to MPEC 2008-T71
Additional Observations:
K08T03C C2008 10 07.03104 23 44 24.32 +08 33 25.0 14.3 R ET072J53
K08T03C C2008 10 07.03148 23 44 29.96 +08 33 32.4 13.6 R ET072J53
K08T03C C2008 10 07.03258 23 44 44.27 +08 33 52.0 13.6 R ET072J53
K08T03C C2008 10 07.03272 23 44 46.22 +08 33 54.6 14.4 R ET072J53
K08T03C C2008 10 07.03317 23 44 52.13 +08 34 02.4 13.9 R ET072J53
K08T03C C2008 10 07.03336 23 41 17.69 +07 39 46.1 14.3 R ET072473
K08T03C C2008 10 07.03552 23 41 46.30 +07 38 59.8 14.5 R ET072473
K08T03C C2008 10 07.03578 23 43 15.16 +07 53 45.1 14.5 R ET072A77
K08T03C C2008 10 07.03596 23 43 17.55 +07 53 42.8 13.8 R ET072A77
K08T03C C2008 10 07.03631 23 43 22.49 +07 53 38.5 14.7 R ET072A77
K08T03C C2008 10 07.03635 23 43 54.21 +07 22 13.9 15.0 V ET072611
K08T03C C2008 10 07.03648 23 43 24.92 +07 53 37.2 13.9 R ET072A77
K08T03C C2008 10 07.03665 23 43 27.38 +07 53 34.4 14.8 R ET072A77
K08T03C C2008 10 07.03683 23 43 29.82 +07 53 32.9 14.5 R ET072A77
K08T03C C2008 10 07.03700 23 43 32.32 +07 53 30.5 13.9 R ET072A77
K08T03C C2008 10 07.03717 23 43 34.82 +07 53 28.4 14.5 R ET072A77
K08T03C C2008 10 07.03769 23 42 16.49 +07 38 09.4 14.4 R ET072473
K08T03C C2008 10 07.04136 23 43 11.59 +07 36 34.3 14.3 R ET072473
K08T03C C2008 10 07.04352 23 43 46.38 +07 35 31.6 14.1 R ET072473
Observer details:
473 Remanzacco. Observers V. Gonano, E. Guido, G. Sostero, P. Camilleri.
0.45-m f/4.4 Newtonian reflector + CCD.
611 Starkenburg. Observer M. Busch. 0.45-m f/4.4 reflector + CCD.
A77 Observatoire Chante-Perdrix, Dauban. Observers C. Rinner, F. Kugel.
Measurer F. Kugel. 0.5-m f/3 reflector + CCD.
J53 Posadas. Observer R. Benavides. 0.28-m f/5.0 Schmidt-Cassegrain + CCD.
Orbital elements:
2008 TC3 Earth MOID = 0.0000 AU
Epoch 2008 Oct. 6.0 TT = JDT 2454745.5 MPC
M 328.47695 (2000.0) P Q
n 0.68820431 Peri. 233.95121 +0.37341149 -0.92761279
a 1.2705481 Node 194.13268 +0.86364653 +0.35152482
e 0.2852079 Incl. 2.32791 +0.33864219 +0.12635191
P 1.43 H 30.4 G 0.15 U 4
Residuals in seconds of arc
081006 G96 0.4+ 0.1- 081006 J53 0.3- 0.1- 081006 J47 0.4+ 0.1+
081006 G96 0.0+ 0.1- 081006 A77 0.2- 0.2+ 081006 J95 0.8- 0.1-
081006 G96 0.3- 0.4- 081006 J53 0.1+ 0.1+ 081006 J47 0.6- 0.3-
081006 G96 0.1+ 0.2- 081006 J47 0.1- 0.2+ 081006 213 1.2- 0.4-
081006 G96 0.1+ 0.1- 081006 A77 1.6- 0.0- 081006 143 0.3+ 0.2-
081006 G96 0.0+ 0.1- 081006 A77 0.9- 0.0+ 081006 J47 0.1- 0.2+
081006 854 1.0- 1.0+ 081006 A77 1.0- 0.1+ 081006 114 (4.7- 1.4+)
081006 G96 0.1+ 0.1- 081006 213 0.4- 0.3- 081006 J47 0.0- 0.2+
081006 854 0.0+ 0.2- 081006 A77 0.0+ 0.2+ 081006 213 0.9- 0.1-
081006 854 0.2- 1.0+ 081006 A77 1.4+ 0.3+ 081006 J47 0.2+ 0.1+
081006 G96 0.0- 0.0+ 081006 213 0.3- 0.1- 081006 114 (9.0- 2.0+)
081006 G96 0.3+ 0.1- 081006 A77 1.4+ 0.6+ 081006 J47 0.3+ 0.1+
081006 G96 0.5+ 0.2- 081006 A77 0.8+ 0.3+ 081006 J47 0.0- 0.2+
081006 G96 0.4+ 0.1- 081006 J47 0.0- 0.3+ 081006 114 2.6+ 0.8+
081006 G96 0.5+ 0.1- 081006 J47 0.3- 0.0- 081006 J47 0.0+ 0.1-
081006 D90 0.1+ 0.4- 081006 A77 0.8+ 0.3+ 081006 473 0.2+ 0.3-
081006 D90 0.0+ 0.0- 081006 J51 0.8- 0.5- 081006 J47 0.1- 0.1-
081006 D90 0.8- 0.4+ 081006 A77 0.1- 0.2+ 081006 J47 0.1+ 0.1+
081006 E12 0.0- 0.6- 081006 J51 0.0- 0.0- 081006 114 (3.3+ 0.8+)
081006 E12 0.0+ 0.4- 081006 J47 0.1- 0.3+ 081006 213 0.6- 0.3-
081006 E12 0.1+ 0.3- 081006 J51 0.3+ 0.1- 081006 J47 0.2- 0.1-
081006 E12 0.5+ 0.4+ 081006 J47 0.1- 0.0- 081006 J47 0.0+ 0.0+
081006 E12 1.1+ 0.1- 081006 J47 0.1+ 0.5+ 081006 952 0.3+ 1.8-
081006 E12 0.0- 0.9- 081006 J47 0.1+ 0.2+ 081006 J47 0.6- 0.1+
081006 E12 0.7- 0.6- 081006 J47 0.2+ 0.1+ 081006 J47 0.1- 0.0-
081006 E12 0.2+ 0.7- 081006 213 0.4- 0.1- 081006 213 0.1- 0.2-
081006 114 0.4+ 0.5+ 081006 J47 0.5+ 0.1- 081006 473 0.2- 0.1+
081006 114 0.1- 0.3+ 081006 J95 0.4- 0.5- 081006 J95 0.7- 0.1-
081006 114 0.1+ 0.8+ 081006 J47 0.5- 0.1- 081006 473 0.2- 0.5-
081006 114 0.5+ 0.7+ 081006 213 0.3- 0.1- 081006 213 0.8- 0.2-
081006 114 0.9- 0.4+ 081006 J47 0.0+ 0.1- 081006 952 1.6- 0.4+
081006 114 0.4+ 0.4+ 081006 J47 0.0+ 0.0+ 081006 213 0.8- 0.1+
081006 114 0.5+ 0.6+ 081006 213 0.1- 0.0- 081006 J47 0.1+ 0.1+
081006 114 0.4+ 0.3+ 081006 J75 0.8+ 0.0- 081006 952 1.2- 1.3-
081006 114 0.6+ 0.6+ 081006 J95 0.5- 0.2- 081006 J47 0.3- 0.1+
081006 106 0.1- 0.5- 081006 J47 0.4+ 0.5+ 081006 J47 0.3- 0.1-
081006 106 1.9- 0.2+ 081006 952 0.4+ 1.3- 081006 J47 0.6+ 0.0+
081006 114 0.2+ 0.8+ 081006 213 0.4- 0.4- 081006 J47 0.1- 0.1+
081006 106 1.8- 1.2- 081006 J47 0.2- 0.3+ 081006 J47 0.7+ 0.2+
081006 114 0.2+ 0.5+ 081006 J47 0.1+ 0.3+ 081006 J47 0.5+ 0.1+
081006 114 0.5+ 0.3+ 081006 J95 0.5- 0.3- 081006 J95 0.6- 0.2-
081006 114 0.6+ 0.4+ 081006 952 0.0+ 1.3- 081006 J47 0.1- 0.1+
081006 114 0.1- 0.2+ 081006 473 0.2- 0.2- 081006 J95 0.6- 0.1-
081006 143 0.5- 0.1- 081006 952 0.4+ 0.9- 081006 J47 0.5+ 0.1+
081006 143 0.1- 0.1- 081006 A77 0.6+ 0.5+ 081006 213 0.1- 0.5-
081006 143 0.1+ 0.2- 081006 A77 0.2+ 0.2+ 081006 J47 0.3+ 0.0+
081006 143 0.3- 0.1- 081006 143 0.1+ 0.5- 081006 J47 0.5+ 0.1+
081006 595 0.4- 0.3+ 081006 A77 1.0+ 0.4+ 081006 213 0.4- 0.1-
081006 143 0.2- 0.1- 081006 J95 0.5- 0.3- 081006 J47 0.5+ 0.1+
081006 620 0.1- 0.3+ 081006 473 0.0+ 0.1- 081006 J47 0.5+ 0.2+
081006 A77 (4.7- 0.7+) 081006 A77 0.3- 0.2+ 081006 J47 0.7+ 0.4+
081006 A77 2.3- 0.2- 081006 A77 0.3+ 0.3+ 081006 J47 0.1+ 0.1-
081006 595 0.0+ 0.9+ 081006 A77 0.1- 0.4+ 081006 J47 0.8+ 0.2+
081006 595 0.4- 0.5+ 081006 143 0.2+ 0.5- 081006 213 1.2- 0.1+
081006 143 0.2- 0.1- 081006 213 0.5- 0.7- 081006 J47 0.2- 0.1-
081006 A77 2.2- 0.2- 081006 A77 0.3- 0.4+ 081006 473 0.1- 0.0-
081006 620 0.0+ 0.0+ 081006 A77 0.5- 0.3+ 081006 J47 0.2+ 0.2-
081006 620 0.5+ 0.0- 081006 473 0.2+ 0.2- 081006 A77 0.2- 0.1+
081006 620 1.1- 0.2- 081006 A77 0.9+ 0.3+ 081006 A77 0.0+ 0.0+
081006 143 0.0- 0.0- 081006 A77 0.2- 0.5+ 081006 A77 0.1- 0.4+
081006 J95 0.3- 0.1- 081006 A77 0.1+ 0.3+ 081006 J47 0.5+ 0.0+
081006 J95 0.3- 0.3- 081006 143 0.3+ 0.3- 081006 A77 0.0+ 0.7+
081006 J95 0.0- 0.0- 081006 A77 0.1- 0.5+ 081006 A77 0.7- 0.4+
081006 143 0.0- 0.1- 081006 A77 0.6- 0.2+ 081006 213 1.6- 0.2-
081006 J95 0.2- 0.3- 081006 J75 0.5+ 0.0+ 081006 J47 0.3- 0.1-
081006 204 0.3- 0.2- 081006 J75 0.0- 0.1- 081006 A77 0.4+ 0.3+
081006 J95 0.2+ 0.0+ 081006 473 0.0- 0.4- 081006 A77 0.8+ 0.3+
081006 204 0.2- 0.3- 081006 213 0.6- 0.2- 081006 J47 0.7+ 0.2+
081006 204 0.0- 0.2- 081006 J47 0.1- 0.0+ 081006 A77 0.4- 0.0-
081006 204 0.0+ 0.2- 081006 A86 1.9+ 0.5+ 081006 A77 0.5- 0.1+
081006 204 0.1- 0.0+ 081006 A86 1.7+ 0.2+ 081006 J47 0.6- 1.8-
081006 204 0.4- 0.2- 081006 J47 0.3- 0.1+ 081006 A77 0.4- 0.0+
081006 620 0.6- 0.1- 081006 213 0.9- 0.2- 081006 A77 0.7- 0.3-
081006 143 0.1- 0.1- 081006 J47 0.2+ 0.1- 081006 A86 (3.5+ 0.2+)
081006 620 0.3+ 0.1- 081006 J47 0.2+ 0.1+ 081006 J47 0.3+ 0.1+
081006 204 0.3- 0.2- 081006 J47 0.2+ 0.1+ 081006 J47 0.6+ 0.4+
081006 204 0.3- 0.2- 081006 473 0.2+ 0.3- 081006 A86 (6.2+ 0.1+)
081006 204 0.5- 0.0- 081006 J47 0.3+ 0.1+ 081006 J95 0.8- 0.2-
081006 204 0.3- 0.1- 081006 952 0.4- 0.3- 081006 J47 0.8+ 0.4+
081006 204 0.4- 0.0- 081006 143 0.3+ 0.1+ 081006 A86 2.1+ 0.4+
081006 620 0.3+ 0.0- 081006 J47 0.1- 0.1+ 081006 J47 0.6+ 0.1-
081006 143 0.0- 0.1- 081006 952 0.0+ 0.2+ 081006 J47 0.4+ 0.3+
081006 473 0.2- 0.5+ 081006 J47 0.2- 0.0- 081006 J47 0.0- 0.1-
081006 046 (4.0+ 1.5+) 081006 213 0.1- 0.1+ 081006 J47 0.2+ 0.0+
081006 046 0.3- 0.4+ 081006 J47 0.0+ 0.0+ 081006 213 1.1- 0.2-
081006 046 0.1+ 0.3- 081006 213 0.4- 0.4- 081006 J47 0.7+ 0.1-
081006 046 0.1+ 0.0+ 081006 J47 0.1+ 0.1+ 081006 J47 0.1+ 0.1-
081006 046 0.3+ 0.1- 081006 473 0.4+ 0.2- 081006 473 0.0- 0.0+
081006 620 0.0- 0.0+ 081006 143 0.5+ 0.1- 081006 213 0.8- 0.6-
081006 473 0.3- 0.2+ 081006 952 0.8- 0.1- 081006 J75 0.9+ 0.0+
081006 J75 0.3- 0.1+ 081006 J47 0.2- 0.0+ 081006 J75 0.6+ 0.0-
081006 620 0.2+ 0.0- 081006 213 0.2- 0.2- 081006 213 1.0- 0.1-
081006 046 0.4- 0.3- 081006 J47 0.1- 0.1- 081006 J75 0.2+ 0.0+
081006 046 0.3+ 0.6- 081006 J75 0.9+ 0.3+ 081006 J75 0.8+ 0.1+
081006 143 0.1+ 0.2- 081006 J47 0.1- 0.1- 081006 J75 0.9+ 0.0+
081006 046 0.4+ 0.3+ 081006 J47 0.3+ 0.0- 081006 473 0.4+ 0.2-
081006 046 0.1+ 0.2+ 081006 213 0.1- 0.3- 081006 J75 1.1+ 0.0+
081006 J75 0.6+ 0.4+ 081006 J75 0.5- 0.2- 081006 473 0.4+ 0.3-
081006 046 0.3+ 0.2+ 081006 213 0.0+ 0.7- 081007 213 0.9- 0.2-
081006 046 0.3- 0.1+ 081006 J47 0.7+ 0.3+ 081007 A86 (5.3+ 0.2-)
081006 046 0.1- 0.4+ 081006 473 0.5+ 0.4- 081007 J75 0.8+ 0.2-
081006 473 0.0+ 0.1+ 081006 J47 0.0+ 0.0+ 081007 213 0.7- 0.0+
081006 213 0.6- 0.6+ 081006 J47 0.1+ 0.1+ 081007 473 0.0- 0.2-
081006 620 0.2+ 0.1+ 081006 J53 0.5+ 0.2- 081007 J75 0.2+ 0.1-
081006 213 0.5- 0.5+ 081006 J53 0.1+ 0.2- 081007 J53 1.1- 0.6-
081006 J75 1.1+ 0.4+ 081006 J47 0.4+ 0.0+ 081007 A86 (6.3+ 0.2+)
081006 473 0.3- 0.0+ 081006 213 0.5- 0.1- 081007 J75 1.1+ 0.1-
081006 046 0.6+ 0.4- 081006 J47 0.1+ 0.0- 081007 J53 1.6- 0.6-
081006 046 0.3+ 0.1- 081006 J53 0.4- 0.3- 081007 213 1.9- 0.3-
081006 620 0.8+ 0.0+ 081006 213 1.0- 0.3- 081007 J75 0.1+ 0.1+
081006 046 0.3+ 0.1+ 081006 143 0.3- 0.1- 081007 A77 0.6+ 0.7+
081006 J75 0.3+ 0.3+ 081006 J47 0.4- 0.1+ 081007 A77 0.1+ 0.6+
081006 046 0.9+ 0.3- 081006 143 0.2+ 0.0- 081007 A77 0.5- 0.4+
081006 473 0.1- 0.2- 081006 J47 0.2+ 0.1+ 081007 A77 0.5+ 0.3+
081006 213 0.2- 0.2- 081006 213 0.9- 0.0+ 081007 A77 0.1+ 0.5+
081006 620 0.7+ 0.0+ 081006 J47 0.1+ 0.1- 081007 A77 0.6- 0.8+
081006 143 0.5+ 0.2- 081006 J47 0.4- 0.0- 081007 A77 0.8+ 0.3+
081006 J75 0.8+ 0.3+ 081006 213 0.2- 0.5- 081007 A77 0.5- 0.1+
